CW3996 Weather Reports


Display with metric or nautical units.
time (UTC)temp
F
wind
direction
speed
MPH
gust
MPH
rain 1hr
in
rain 24hr
in
rain mn
in
humidity
%
barometer
mb
20260906141226 73 179 9.0 17.0 0.00 0.00 0.00 23 1018.7
20260906140719 73 173 8.0 17.0 0.00 0.00 0.00 23 1018.6
20260906140214 72 169 10.0 16.0 0.00 0.00 0.00 23 1018.6
20260906135728 72 175 8.0 15.0 0.00 0.00 0.00 24 1018.6
20260906135226 71 176 9.0 16.0 0.00 0.00 0.00 24 1018.5
20260906134720 71 177 8.0 16.0 0.00 0.00 0.00 24 1018.5
20260906134214 71 156 10.0 17.0 0.00 0.00 0.00 23 1018.5
20260906133748 71 165 8.0 17.0 0.00 0.00 0.00 23 1018.4
20260906133221 70 173 8.0 14.0 0.00 0.00 0.00 24 1018.5
20260906132715 70 193 8.0 12.0 0.00 0.00 0.00 24 1018.4
20260906132229 70 210 7.0 14.0 0.00 0.00 0.00 24 1018.4
20260906131723 69 171 7.0 9.0 0.00 0.00 0.00 25 1018.4
20260906131221 69 175 6.0 10.0 0.00 0.00 0.00 25 1018.3
20260906130714 69 177 6.0 10.0 0.00 0.00 0.00 25 1018.2
20260906130251 69 178 5.0 10.0 0.00 0.00 0.00 25 1018.2
20260906125724 69 179 4.0 11.0 0.00 0.00 0.00 25 1018.2
20260906125238 69 179 6.0 11.0 0.00 0.00 0.00 25 1018.1
20260906124731 69 179 5.0 10.0 0.00 0.00 0.00 25 1018.1
20260906124224 70 178 5.0 13.0 0.00 0.00 0.00 25 1018.1
20260906123718 70 184 7.0 14.0 0.00 0.00 0.00 25 1018.1
20260906123253 70 180 7.0 14.0 0.00 0.00 0.00 24 1018.1
20260906122725 70 185 8.0 15.0 0.00 0.00 0.00 24 1018.0
20260906122219 70 180 7.0 15.0 0.00 0.00 0.00 24 1018.0
20260906121717 70 181 7.0 15.0 0.00 0.00 0.00 24 1018.0
20260906121232 70 176 8.0 15.0 0.00 0.00 0.00 24 1018.1
20260906120745 70 180 6.0 15.0 0.00 0.00 0.00 23 1018.1
20260906120220 71 174 8.0 16.0 0.00 0.00 0.00 23 1018.1
20260906115713 71 175 10.0 16.0 0.00 0.00 0.00 23 1018.1
20260906115228 71 183 6.0 15.0 0.00 0.00 0.00 23 1018.1
20260906114741 71 186 9.0 17.0 0.00 0.00 0.00 22 1018.1
20260906114215 71 175 8.0 17.0 0.00 0.00 0.00 22 1018.1
20260906113749 71 179 9.0 15.0 0.00 0.00 0.00 22 1018.1
20260906113225 71 177 9.0 17.0 0.00 0.00 0.00 22 1018.1
20260906112739 71 171 10.0 17.0 0.00 0.00 0.00 22 1018.1
20260906112213 72 186 8.0 15.0 0.00 0.00 0.00 22 1018.1
20260906111726 72 169 9.0 19.0 0.00 0.00 0.00 22 1018.1
20260906111220 72 182 11.0 19.0 0.00 0.00 0.00 22 1018.1
20260906110714 71 182 8.0 15.0 0.00 0.00 0.00 22 1018.0
20260906110229 72 173 8.0 16.0 0.00 0.00 0.00 21 1018.0
20260906105722 71 182 8.0 16.0 0.00 0.00 0.00 21 1017.9
20260906105216 71 178 9.0 17.0 0.00 0.00 0.00 21 1018.0
20260906104714 71 184 9.0 16.0 0.00 0.00 0.00 21 1018.0
20260906104228 71 185 7.0 15.0 0.00 0.00 0.00 21 1018.0
20260906103722 71 184 8.0 15.0 0.00 0.00 0.00 21 1018.0
20260906103217 72 180 8.0 15.0 0.00 0.00 0.00 20 1018.0
20260906102731 72 181 8.0 15.0 0.00 0.00 0.00 20 1018.1
20260906102224 72 182 8.0 15.0 0.00 0.00 0.00 20 1018.0
20260906101717 72 187 8.0 15.0 0.00 0.00 0.00 20 1018.0
20260906101232 72 181 10.0 15.0 0.00 0.00 0.00 20 1017.9
20260906100725 72 175 9.0 16.0 0.00 0.00 0.00 20 1017.9
20260906100224 73 177 11.0 16.0 0.00 0.00 0.00 19 1017.9
20260906095717 72 177 9.0 15.0 0.00 0.00 0.00 20 1017.9
20260906095232 72 184 9.0 16.0 0.00 0.00 0.00 20 1017.9
20260906094725 72 173 8.0 15.0 0.00 0.00 0.00 20 1017.8
20260906094220 72 175 8.0 18.0 0.00 0.00 0.00 20 1017.8
20260906093713 73 178 7.0 18.0 0.00 0.00 0.00 19 1017.8
20260906093247 73 179 9.0 14.0 0.00 0.00 0.00 19 1017.8
20260906092720 73 175 9.0 14.0 0.00 0.00 0.00 19 1017.8
20260906092234 73 175 8.0 14.0 0.00 0.00 0.00 19 1017.8
20260906091731 73 177 9.0 17.0 0.00 0.00 0.00 19 1017.8
20260906091245 73 177 8.0 17.0 0.00 0.00 0.00 19 1017.8
20260906090718 73 186 10.0 16.0 0.00 0.00 0.00 18 1017.7
20260906090213 73 174 9.0 20.0 0.00 0.00 0.00 18 1017.8
20260906085726 73 182 11.0 20.0 0.00 0.00 0.00 18 1017.7
20260906085221 73 186 8.0 18.0 0.00 0.00 0.00 18 1017.8
20260906084714 73 184 8.0 18.0 0.00 0.00 0.00 17 1017.7
20260906084228 73 175 10.0 17.0 0.00 0.00 0.00 17 1017.7
20260906083726 73 189 8.0 18.0 0.00 0.00 0.00 17 1017.8
20260906083220 74 171 7.0 18.0 0.00 0.00 0.00 17 1017.7
20260906082714 74 170 10.0 17.0 0.00 0.00 0.00 17 1017.8
20260906082249 74 173 9.0 18.0 0.00 0.00 0.00 17 1017.8
20260906081722 74 170 7.0 18.0 0.00 0.00 0.00 16 1017.8
20260906081216 74 179 7.0 18.0 0.00 0.00 0.00 17 1017.8
20260906080729 74 161 10.0 15.0 0.00 0.00 0.00 16 1017.8
20260906080224 74 189 8.0 17.0 0.00 0.00 0.00 16 1017.9
20260906075717 74 179 10.0 17.0 0.00 0.00 0.00 16 1017.9
20260906075216 74 161 10.0 17.0 0.00 0.00 0.00 16 1017.9
20260906074729 74 190 8.0 19.0 0.00 0.00 0.00 16 1017.9
20260906074223 73 171 10.0 19.0 0.00 0.00 0.00 16 1017.9
20260906073717 73 166 8.0 17.0 0.00 0.00 0.00 16 1017.9
20260906073232 73 179 7.0 18.0 0.00 0.00 0.00 16 1017.9
20260906072726 74 161 8.0 18.0 0.00 0.00 0.00 15 1017.9
20260906072221 73 174 7.0 11.0 0.00 0.00 0.00 16 1017.9
20260906071718 73 168 6.0 14.0 0.00 0.00 0.00 16 1018.0
20260906071233 73 168 7.0 14.0 0.00 0.00 0.00 15 1018.0
20260906070726 73 181 7.0 14.0 0.00 0.00 0.00 15 1018.0
20260906070222 74 171 8.0 14.0 0.00 0.00 0.00 15 1018.0
20260906065715 74 173 8.0 14.0 0.00 0.00 0.00 15 1018.0
20260906065230 74 180 10.0 15.0 0.00 0.00 0.00 14 1018.0
20260906064723 74 174 7.0 15.0 0.00 0.00 0.00 14 1018.1
20260906064218 74 177 9.0 14.0 0.00 0.00 0.00 14 1018.0
20260906063735 73 175 7.0 14.0 0.00 0.00 0.00 14 1018.0
20260906063229 73 186 6.0 16.0 0.00 0.00 0.00 14 1018.0
20260906062723 73 177 9.0 16.0 0.00 0.00 0.00 14 1018.0
20260906062237 74 182 9.0 19.0 0.00 0.00 0.00 13 1018.0
20260906061730 74 184 10.0 21.0 0.00 0.00 0.00 13 1018.0
20260906061224 74 186 10.0 21.0 0.00 0.00 0.00 12 1018.0
20260906060718 74 198 10.0 18.0 0.00 0.00 0.00 12 1018.0
20260906060214 74 178 9.0 18.0 0.00 0.00 0.00 12 1018.0
20260906055727 74 159 9.0 18.0 0.00 0.00 0.00 12 1018.0
20260906055225 74 179 11.0 23.0 0.00 0.00 0.00 11 1018.0
20260906054719 75 170 11.0 17.0 0.00 0.00 0.00 11 1017.9
20260906054213 75 184 10.0 17.0 0.00 0.00 0.00 11 1017.9
20260906053727 75 187 11.0 21.0 0.00 0.00 0.00 11 1017.8
20260906053221 75 180 11.0 21.0 0.00 0.00 0.00 11 1017.9
20260906052715 75 163 11.0 22.0 0.00 0.00 0.00 11 1017.8
20260906052229 74 173 12.0 21.0 0.00 0.00 0.00 11 1017.7
20260906051727 74 192 10.0 19.0 0.00 0.00 0.00 11 1017.8
20260906051241 74 192 10.0 20.0 0.00 0.00 0.00 12 1017.7
20260906050715 74 195 11.0 19.0 0.00 0.00 0.00 11 1017.7
20260906050230 74 200 11.0 22.0 0.00 0.00 0.00 12 1017.7
20260906045722 75 173 11.0 23.0 0.00 0.00 0.00 12 1017.7
20260906045217 75 182 11.0 24.0 0.00 0.00 0.00 12 1017.7
20260906044731 75 157 12.0 24.0 0.00 0.00 0.00 12 1017.7
20260906044225 75 158 12.0 18.0 0.00 0.00 0.00 12 1017.7
20260906043722 74 178 11.0 19.0 0.00 0.00 0.00 12 1017.7
20260906043216 74 187 10.0 18.0 0.00 0.00 0.00 13 1017.8
20260906042750 74 177 9.0 23.0 0.00 0.00 0.00 13 1017.8
20260906042223 75 186 12.0 23.0 0.00 0.00 0.00 12 1017.7
20260906041737 75 207 14.0 19.0 0.00 0.00 0.00 12 1017.8
20260906041231 75 177 11.0 19.0 0.00 0.00 0.00 13 1017.7
20260906040744 75 193 11.0 19.0 0.00 0.00 0.00 13 1017.7
20260906040219 75 180 10.0 22.0 0.00 0.00 0.00 13 1017.8
20260906035712 75 186 10.0 19.0 0.00 0.00 0.00 13 1017.8
20260906035247 75 190 12.0 19.0 0.00 0.00 0.00 13 1017.8
20260906034724 76 176 10.0 19.0 0.00 0.00 0.00 13 1017.7
20260906034217 76 174 10.0 19.0 0.00 0.00 0.00 13 1017.6
20260906033731 76 178 12.0 21.0 0.00 0.00 0.00 13 1017.6
20260906033224 76 170 10.0 19.0 0.00 0.00 0.00 13 1017.5
20260906032717 76 170 9.0 16.0 0.00 0.00 0.00 13 1017.4
20260906032252 76 173 10.0 17.0 0.00 0.00 0.00 13 1017.4
20260906031725 76 186 10.0 16.0 0.00 0.00 0.00 13 1017.3
20260906031239 76 182 9.0 16.0 0.00 0.00 0.00 13 1017.3
20260906030712 76 161 7.0 22.0 0.00 0.00 0.00 12 1017.1
20260906030228 77 159 14.0 22.0 0.00 0.00 0.00 12 1016.9
20260906025725 76 170 8.0 16.0 0.00 0.00 0.00 12 1017.0
20260906025220 77 165 8.0 16.0 0.00 0.00 0.00 11 1016.9
20260906024713 76 172 7.0 14.0 0.00 0.00 0.00 12 1016.8
20260906024227 77 180 8.0 15.0 0.00 0.00 0.00 11 1016.7
20260906023721 77 161 9.0 16.0 0.00 0.00 0.00 11 1016.6
20260906023216 77 165 6.0 17.0 0.00 0.00 0.00 10 1016.6
20260906022730 77 188 7.0 17.0 0.00 0.00 0.00 10 1016.5
20260906022224 77 183 9.0 15.0 0.00 0.00 0.00 10 1016.5
20260906021721 78 205 7.0 18.0 0.00 0.00 0.00 10 1016.4
20260906021216 78 206 9.0 18.0 0.00 0.00 0.00 9 1016.3
20260906020730 78 198 10.0 17.0 0.00 0.00 0.00 9 1016.3
20260906020225 79 217 11.0 17.0 0.00 0.00 0.00 9 1016.3
20260906015718 79 196 9.0 18.0 0.00 0.00 0.00 9 1016.3
20260906015213 79 219 11.0 22.0 0.00 0.00 0.00 9 1016.3
20260906014747 80 218 15.0 22.0 0.00 0.00 0.00 8 1016.2
20260906014220 80 212 14.0 24.0 0.00 0.00 0.00 8 1016.2
20260906013717 80 217 15.0 25.0 0.00 0.00 0.00 8 1016.2
20260906013232 81 223 17.0 25.0 0.00 0.00 0.00 8 1016.2
20260906012726 81 222 12.0 23.0 0.00 0.00 0.00 8 1016.2
20260906012220 81 235 16.0 23.0 0.00 0.00 0.00 7 1016.1
20260906011713 82 232 14.0 27.0 0.00 0.00 0.00 7 1016.2
20260906011228 82 227 18.0 27.0 0.00 0.00 0.00 7 1016.1
20260906010741 82 209 17.0 27.0 0.00 0.00 0.00 7 1016.1
20260906010216 83 234 15.0 28.0 0.00 0.00 0.00 7 1016.0
20260906005713 83 233 17.0 28.0 0.00 0.00 0.00 7 1016.0
20260906005228 83 228 18.0 27.0 0.00 0.00 0.00 7 1016.0
20260906004721 84 227 19.0 25.0 0.00 0.00 0.00 6 1015.9
20260906004216 84 235 18.0 31.0 0.00 0.00 0.00 6 1015.9
20260906003729 84 209 19.0 31.0 0.00 0.00 0.00 6 1015.9
20260906003224 85 196 20.0 31.0 0.00 0.00 0.00 5 1015.9
20260906002717 85 231 15.0 25.0 0.00 0.00 0.00 5 1015.9
20260906002216 85 227 16.0 25.0 0.00 0.00 0.00 6 1015.9
20260906001729 86 228 18.0 28.0 0.00 0.00 0.00 6 1015.9
20260906001244 86 235 15.0 24.0 0.00 0.00 0.00 6 1015.8
20260906000737 86 236 12.0 26.0 0.00 0.00 0.00 6 1015.8
20260906000234 86 219 18.0 26.0 0.00 0.00 0.00 6 1015.9
20260905235726 86 238 17.0 27.0 0.00 0.00 0.00 5 1015.8
20260905235221 86 204 18.0 30.0 0.00 0.00 0.00 5 1015.8
20260905234734 86 228 22.0 30.0 0.00 0.00 0.00 4 1015.8
20260905234248 86 209 18.0 29.0 0.00 0.00 0.00 5 1015.6
20260905233720 86 207 15.0 29.0 0.00 0.00 0.00 5 1016.0
20260905233218 87 230 17.0 31.0 0.00 0.00 0.00 4 1015.9
20260905232712 87 208 18.0 32.0 0.00 0.00 0.00 4 1015.9
20260905232227 87 239 19.0 32.0 0.00 0.00 0.00 3 1015.8
20260905231720 87 250 14.0 28.0 0.00 0.00 0.00 4 1015.9
20260905231234 87 222 18.0 28.0 0.00 0.00 0.00 4 1016.0
20260905230727 88 230 19.0 28.0 0.00 0.00 0.00 3 1016.0
20260905230222 88 211 15.0 24.0 0.00 0.00 0.00 3 1016.0
20260905225716 88 235 14.0 28.0 0.00 0.00 0.00 4 1016.0
20260905225250 88 224 18.0 28.0 0.00 0.00 0.00 3 1016.1
20260905224726 88 235 13.0 24.0 0.00 0.00 0.00 5 1016.1
20260905224221 88 239 17.0 25.0 0.00 0.00 0.00 3 1016.1
20260905223714 88 217 13.0 25.0 0.00 0.00 0.00 4 1016.2
20260905223226 87 210 17.0 26.0 0.00 0.00 0.00 3 1016.1
20260905222721 88 219 17.0 29.0 0.00 0.00 0.00 3 1016.2
20260905222214 88 241 16.0 29.0 0.00 0.00 0.00 3 1016.3
20260905221747 88 232 17.0 25.0 0.00 0.00 0.00 3 1016.4
20260905221241 88 227 18.0 25.0 0.00 0.00 0.00 4 1016.2
20260905220713 88 224 9.0 21.0 0.00 0.00 0.00 4 1016.4
20260905220229 88 199 13.0 21.0 0.00 0.00 0.00 4 1016.5
20260905215725 88 217 11.0 19.0 0.00 0.00 0.00 5 1016.3
20260905215218 89 202 12.0 24.0 0.00 0.00 0.00 4 1016.6
20260905214752 88 208 17.0 24.0 0.00 0.00 0.00 4 1016.7
20260905214226 87 191 10.0 23.0 0.00 0.00 0.00 5 1016.7
20260905213720 88 212 16.0 22.0 0.00 0.00 0.00 4 1016.6
20260905213214 88 208 13.0 20.0 0.00 0.00 0.00 5 1016.9
20260905212728 88 207 12.0 22.0 0.00 0.00 0.00 5 1016.9
20260905212222 89 221 14.0 22.0 0.00 0.00 0.00 4 1016.9
20260905211715 87 210 11.0 17.0 0.00 0.00 0.00 4 1016.9
20260905211214 88 173 11.0 17.0 0.00 0.00 0.00 4 1017.0
20260905210727 88 203 11.0 25.0 0.00 0.00 0.00 4 1017.0
20260905210223 87 225 12.0 25.0 0.00 0.00 0.00 4 1017.1
20260905205715 87 196 12.0 21.0 0.00 0.00 0.00 4 1017.2
20260905205250 87 207 7.0 23.0 0.00 0.00 0.00 5 1017.3
20260905204742 87 203 15.0 23.0 0.00 0.00 0.00 3 1017.4
20260905204215 88 216 15.0 23.0 0.00 0.00 0.00 3 1017.3
20260905203729 87 199 8.0 18.0 0.00 0.00 0.00 5 1017.4
20260905203223 87 214 14.0 18.0 0.00 0.00 0.00 3 1017.5
20260905202721 87 215 9.0 19.0 0.00 0.00 0.00 5 1017.5
20260905202215 86 188 9.0 17.0 0.00 0.00 0.00 3 1017.5
20260905201728 87 209 12.0 27.0 0.00 0.00 0.00 3 1017.6
20260905201223 86 216 12.0 27.0 0.00 0.00 0.00 4 1017.6
20260905200716 86 221 8.0 22.0 0.00 0.00 0.00 5 1017.6
20260905200252 86 180 14.0 22.0 0.00 0.00 0.00 4 1017.6
20260905195725 86 210 12.0 22.0 0.00 0.00 0.00 5 1017.6
20260905195219 86 211 16.0 22.0 0.00 0.00 0.00 4 1017.7
20260905194717 86 166 9.0 21.0 0.00 0.00 0.00 5 1017.8
20260905194232 85 157 12.0 21.0 0.00 0.00 0.00 5 1017.9
20260905193724 84 163 11.0 21.0 0.00 0.00 0.00 5 1018.0
20260905193219 85 181 13.0 21.0 0.00 0.00 0.00 4 1018.1
20260905192732 85 196 11.0 19.0 0.00 0.00 0.00 5 1018.1
20260905192225 85 200 10.0 20.0 0.00 0.00 0.00 4 1018.2
20260905191740 85 205 15.0 20.0 0.00 0.00 0.00 5 1018.3
20260905191233 84 191 11.0 21.0 0.00 0.00 0.00 5 1018.3
20260905190726 84 221 15.0 20.0 0.00 0.00 0.00 5 1018.5
20260905190242 83 193 15.0 20.0 0.00 0.00 0.00 4 1018.5
20260905185718 84 213 9.0 24.0 0.00 0.00 0.00 6 1018.5
20260905185233 83 218 16.0 24.0 0.00 0.00 0.00 5 1018.7
20260905184727 83 194 10.0 19.0 0.00 0.00 0.00 5 1018.8
20260905184222 83 221 13.0 19.0 0.00 0.00 0.00 5 1018.8
20260905183716 82 194 12.0 22.0 0.00 0.00 0.00 5 1019.0
20260905183230 82 196 9.0 22.0 0.00 0.00 0.00 5 1019.0
20260905182745 82 215 13.0 22.0 0.00 0.00 0.00 6 1019.1
20260905182218 82 203 14.0 20.0 0.00 0.00 0.00 5 1019.2
20260905181716 82 209 13.0 16.0 0.00 0.00 0.00 6 1019.2
20260905181230 81 207 8.0 18.0 0.00 0.00 0.00 8 1019.5
20260905180724 81 177 6.0 23.0 0.00 0.00 0.00 7 1019.5
20260905180240 81 209 10.0 23.0 0.00 0.00 0.00 7 1019.6
20260905175732 81 206 12.0 22.0 0.00 0.00 0.00 7 1019.5
20260905175226 80 191 11.0 20.0 0.00 0.00 0.00 8 1019.6
20260905174720 80 168 10.0 25.0 0.00 0.00 0.00 7 1019.5
20260905174214 80 225 16.0 25.0 0.00 0.00 0.00 7 1019.7
20260905173728 80 216 15.0 21.0 0.00 0.00 0.00 7 1019.7
20260905173226 79 205 9.0 20.0 0.00 0.00 0.00 8 1019.6
20260905172720 79 203 12.0 20.0 0.00 0.00 0.00 7 1019.7
20260905172214 79 163 11.0 19.0 0.00 0.00 0.00 7 1019.7
20260905171728 79 209 14.0 19.0 0.00 0.00 0.00 6 1019.7
20260905171222 79 204 12.0 22.0 0.00 0.00 0.00 8 1019.7
20260905170716 79 202 13.0 22.0 0.00 0.00 0.00 7 1019.7
20260905170231 79 195 14.0 22.0 0.00 0.00 0.00 7 1019.7
20260905165728 79 213 12.0 17.0 0.00 0.00 0.00 8 1019.6
20260905165222 78 182 9.0 22.0 0.00 0.00 0.00 10 1019.6
20260905164715 78 213 12.0 23.0 0.00 0.00 0.00 9 1019.6
20260905164230 78 207 15.0 23.0 0.00 0.00 0.00 10 1019.6
20260905163723 78 206 12.0 19.0 0.00 0.00 0.00 10 1019.6
20260905163217 78 211 10.0 16.0 0.00 0.00 0.00 13 1019.6
20260905162731 77 194 7.0 16.0 0.00 0.00 0.00 13 1019.5
20260905162246 77 211 10.0 19.0 0.00 0.00 0.00 12 1019.5
20260905161718 76 204 12.0 19.0 0.00 0.00 0.00 14 1019.5
20260905161216 76 202 10.0 16.0 0.00 0.00 0.00 14 1019.5
20260905160730 76 202 12.0 16.0 0.00 0.00 0.00 13 1019.5
20260905160225 76 202 8.0 12.0 0.00 0.00 0.00 15 1019.4
20260905155718 76 190 7.0 13.0 0.00 0.00 0.00 14 1019.4
20260905155233 76 181 6.0 15.0 0.00 0.00 0.00 16 1019.3
20260905154725 75 181 8.0 15.0 0.00 0.00 0.00 15 1019.3
20260905154219 75 187 6.0 14.0 0.00 0.00 0.00 16 1019.2
20260905153732 75 188 7.0 14.0 0.00 0.00 0.00 16 1019.3
20260905153231 75 191 6.0 13.0 0.00 0.00 0.00 16 1019.3
20260905152724 75 190 8.0 12.0 0.00 0.00 0.00 16 1019.3
20260905152218 74 170 7.0 11.0 0.00 0.00 0.00 17 1019.3
20260905151732 74 169 5.0 11.0 0.00 0.00 0.00 17 1019.3
20260905151226 74 169 8.0 14.0 0.00 0.00 0.00 17 1019.3
20260905150719 73 162 7.0 14.0 0.00 0.00 0.00 17 1019.3
20260905150216 73 146 6.0 12.0 0.00 0.00 0.00 17 1019.3
20260905145729 73 151 5.0 12.0 0.00 0.00 0.00 17 1019.2
20260905145227 73 150 6.0 12.0 0.00 0.00 0.00 18 1019.2
20260905144721 72 137 4.0 11.0 0.00 0.00 0.00 19 1019.2
20260905144215 71 118 5.0 9.0 0.00 0.00 0.00 19 1019.2
20260905143748 70 114 4.0 8.0 0.00 0.00 0.00 23 1019.1
20260905143227 69 114 4.0 8.0 0.00 0.00 0.00 23 1019.1
20260905142721 68 114 6.0 10.0 0.00 0.00 0.00 23 1019.1
20260905142216 68 114 7.0 10.0 0.00 0.00 0.00 23 1019.0
20260905141729 67 114 6.0 8.0 0.00 0.00 0.00 24 1018.9